sat.trackr.live / text

‹ back to catalog

STARLINK-1267

NORAD 45384 · 2020-019AA

PAYLOAD ACTIVE UNKNOWN

§ Identity

Operator
Country
US
Launch date
2020-03-18
Launch site
AFETR
Launch vehicle
Mass (kg)
RCS (m²)

Purposes: comms

External: N2YO · Heavens-Above · Gunter

§ Orbital elements

Epoch: 2026-05-25T05:04:04.197216Z

Period
92.11 min
Inclination
53.0441°
Eccentricity
0.0007741
Mean motion
15.63274724 rev/d
Perigee alt
373.0 km
Apogee alt
383.4 km
Semi-major
6,756.3 km
B*
8.9846e-4
RAAN
116.0735°
Arg perigee
59.6029°
Mean anomaly
300.5749°
Rev number
34,220

§ Raw data

STARLINK-12671 45384U 20019AA  26145.21115969  .00084406  00000+0  89846-3 0  99972 45384  53.0441 116.0735 0007741  59.6029 300.5749 15.63274724342206

JSON: /api/v1/satellites/45384 · /tle

For live sub-satellite position, see the globe view (requires WebGL).

§ Visibility from observer

Set your observer location to see the next 7 days of passes ≥ 10°. The values pass through the URL so the page stays shareable.

No JS? Fill the form by hand. The geolocation button needs JavaScript.